Location: Ravensburg
(48.5621°N, 13.4088°E)
Time: 08:50:11
(UTC+02:00)

ISS - Visible Passes

Search period start: 28 May 2017 00:00
Search period end: 07 June 2017 00:00
Orbit: 402 x 408 km, 51.6° (Epoch: 28 May)

Date Brightness Start Highest point End Pass type
(mag) Time Alt. Az. Time Alt. Az. Time Alt. Az.
28 May -2.8 00:07:05 10° WNW 00:10:18 47° N 00:13:30 10° ENE visible
28 May -3.9 01:43:41 10° WNW 01:47:00 90° NNE 01:47:25 65° ESE visible
28 May -3.9 21:38:11 10° WSW 21:41:29 80° SSE 21:44:48 10° ENE visible
28 May -2.8 23:14:56 10° W 23:18:09 48° N 23:21:22 10° ENE visible
29 May -3.5 00:51:38 10° WNW 00:54:56 67° NNE 00:56:02 37° E visible
29 May -1.3 02:28:18 10° W 02:28:37 12° W 02:28:37 12° W visible
29 May -3.0 22:22:46 10° W 22:26:01 53° N 22:29:16 10° ENE visible
29 May -3.1 23:59:34 10° WNW 00:02:49 53° N 00:05:08 17° E visible
30 May -2.3 01:36:07 10° WNW 01:37:46 26° W 01:37:46 26° W visible
30 May -2.8 23:07:27 10° WNW 23:10:40 48° N 23:13:52 10° E visible
31 May -3.9 00:44:01 10° WNW 00:47:05 72° WSW 00:47:05 72° WSW visible
31 May -2.7 22:15:16 10° WNW 22:18:29 47° N 22:21:42 10° ENE visible
31 May -3.7 23:51:56 10° WNW 23:55:14 74° NNE 23:56:30 34° E visible
01 Jun -1.3 01:28:41 10° W 01:29:08 13° W 01:29:08 13° W visible
01 Jun -3.2 22:59:49 10° WNW 23:03:06 57° NNE 23:05:58 13° E visible
02 Jun -2.7 00:36:24 10° WNW 00:38:35 32° WSW 00:38:35 32° WSW visible
02 Jun -2.9 22:07:41 10° WNW 22:10:55 49° N 22:14:08 10° E visible
02 Jun -3.9 23:44:14 10° WNW 23:47:31 68° SSW 23:48:06 53° SSE visible
03 Jun -3.8 22:52:06 10° WNW 22:55:25 83° NNE 22:57:39 19° ESE visible
04 Jun -1.7 00:28:59 10° W 00:30:17 18° WSW 00:30:17 18° WSW visible
04 Jun -3.4 21:59:58 10° WNW 22:03:15 62° NNE 22:06:32 10° E visible
04 Jun -3.1 23:36:36 10° WNW 23:39:39 36° SSW 23:39:51 36° SSW visible
05 Jun -3.7 22:44:21 10° WNW 22:47:37 58° SSW 22:49:26 23° SE visible
06 Jun -3.8 21:52:10 10° WNW 21:55:29 87° SSW 21:58:47 10° ESE visible
06 Jun -2.0 23:29:12 10° W 23:31:37 19° SW 23:31:42 19° SW visible
